Wind_Speed
1 2 2 3 3 3 4 4 5 4 5 4 4 5 5 6 6 7 7 7 7 7 7 6 6 6 6 5 4 4 4 4 4 4 5 5 5 5 5 5 6 6 7
1 2 3 4 4 4 4 3 4 3 3 4 3 4 4 4 5 6 7 7 7 7 6 6 6 5 6 5 4 4 4 3 4 4 4 4 5 5 5 5 6 7 7
1 2 4 5 6 5 5 4 3 3 3 3 3 3 3 4 5 6 6 7 7 7 6 6 6 5 5 5 4 4 3 3 3 3 3 4 4 4 4 5 6 7 8
2 3 4 5 6 7 6 5 4 4 3 3 2 2 2 3 4 5 6 6 6 6 6 5 5 5 5 4 4 4 3 2 2 2 3 3 3 4 4 5 6 7 8
3 4 4 5 6 7 7 7 6 5 4 3 2 1 1 2 4 4 5 6 6 6 5 5 5 5 4 4 3 3 2 2 2 2 2 2 3 3 3 4 6 7 7
4 4 5 6 7 8 8 8 7 6 5 4 2 1 0 2 3 4 5 5 6 6 5 5 5 4 4 3 3 2 2 1 1 1 1 2 2 3 4 4 5 6 6
5 5 6 6 8 9 9 9 8 7 6 5 4 3 2 2 2 4 5 5 5 5 5 5 4 4 3 3 2 2 2 1 0 1 1 2 2 3 4 4 5 5 5
5 5 6 7 8 9 10 10 9 9 7 6 5 4 3 2 2 4 5 5 5 5 5 5 4 4 3 3 2 2 1 0 0 1 2 2 2 3 4 4 5 5 5
6 6 6 7 9 10 10 10 10 9 8 7 6 5 4 3 2 3 4 5 5 5 5 5 4 3 3 3 2 1 1 0 1 1 2 2 2 3 4 5 5 5 5
7 6 6 6 9 10 10 9 10 10 9 9 7 6 5 4 3 3 4 4 4 5 6 5 4 3 3 2 1 1 1 0 1 1 2 2 2 3 4 5 5 5 5
9 7 7 7 9 11 11 10 10 11 10 9 8 6 5 4 4 4 3 4 4 5 5 5 4 3 3 2 1 1 1 1 2 2 2 2 3 3 4 5 5 5 6
9 8 8 8 9 11 12 11 11 11 11 10 9 7 6 5 4 4 4 4 4 4 4 4 4 3 2 2 2 1 2 2 2 2 2 3 3 3 4 5 5 5 6
10 9 10 10 11 12 12 12 11 12 12 12 10 9 8 6 5 5 4 4 3 4 4 3 3 3 2 2 2 2 2 2 3 3 3 4 3 4 4 5 6 6 6
11 10 10 10 11 11 12 12 13 13 13 13 11 10 9 7 6 5 5 5 4 3 3 2 2 2 2 1 2 2 2 2 3 3 4 4 4 5 5 6 6 6 7
9 8 9 10 12 13 13 13 13 14 14 13 12 11 10 8 7 6 5 5 4 3 2 2 1 2 2 1 2 2 2 2 3 3 4 4 5 5 6 6 7 7 7
8 7 9 10 12 12 12 13 14 15 15 14 13 12 10 9 8 7 6 5 4 3 2 2 2 2 2 1 1 2 2 2 3 3 4 5 5 6 7 7 7 7 7
10 10 10 10 12 11 12 13 15 16 16 15 14 13 11 10 8 7 6 5 4 3 3 2 2 2 2 1 1 1 1 2 2 2 4 4 5 5 6 7 8 8 8
10 8 8 9 11 11 11 14 16 17 17 16 15 14 13 11 9 8 7 6 5 4 3 2 1 1 1 1 1 1 1 1 1 1 2 3 4 4 4 5 6 7 8
9 6 7 8 10 11 13 14 16 17 17 17 16 15 14 12 11 9 9 7 6 5 3 2 2 2 2 1 1 1 1 1 1 1 1 2 3 4 4 4 5 6 7
7 4 5 7 10 12 14 14 15 16 17 17 16 15 14 13 12 10 9 8 7 6 4 3 3 3 3 2 2 2 2 1 2 2 1 1 2 3 4 4 4 5 6
6 3 3 6 9 12 13 14 14 15 17 17 17 15 15 14 13 11 10 9 8 7 6 5 4 4 3 3 2 2 2 1 1 1 1 0 0 1 2 3 4 4 5
4 2 3 5 8 11 12 14 15 14 15 16 16 15 14 15 14 12 11 10 9 8 7 6 5 5 3 2 2 1 1 1 0 1 0 1 1 1 2 3 4 4 5
3 2 2 5 8 9 11 13 14 13 12 14 14 14 14 14 14 13 12 11 11 9 8 7 6 5 4 3 2 2 2 1 2 2 2 2 2 2 2 2 3 4 5
1 1 2 5 7 8 10 12 13 11 12 14 14 14 14 13 13 14 13 12 11 11 10 9 8 7 6 5 4 4 4 3 3 3 3 4 4 4 4 4 4 5 6
2 2 3 5 6 8 10 12 12 12 12 13 14 14 14 14 14 15 15 13 13 12 11 10 10 9 8 7 6 6 6 6 5 5 6 6 6 6 6 6 6 7 7
2 2 2 4 6 8 9 10 10 11 12 13 14 14 14 14 14 15 15 14 14 13 12 11 11 10 10 9 9 8 8 8 8 8 8 8 9 9 9 9 9 9 9
Wind_Direction
175 189 202 207 201 181 161 142 129 120 112 96 81 63 49 39 29 23 21 19 17 16 15 18 21 24 26 33 45 51 54 55 61 74 78 81 85 88 91 90 98 106 110
250 215 212 213 210 199 183 163 149 133 120 107 93 73 49 34 24 17 14 12 10 11 11 13 16 20 23 29 38 44 51 60 63 76 82 87 89 87 90 94 106 114 117
275 247 228 222 216 213 207 198 179 159 136 121 107 86 51 29 16 11 11 8 5 5 6 8 10 14 20 27 34 37 44 54 62 85 89 92 96 98 95 101 114 116 117
271 253 237 225 218 216 213 211 202 190 165 150 127 102 46 19 10 8 7 5 2 1 3 4 4 6 13 22 30 30 34 54 63 95 102 103 103 104 104 110 117 118 118
284 254 233 224 219 214 215 214 207 201 189 176 172 134 38 10 7 4 4 3 360 360 1 0 360 0 6 13 19 24 29 43 74 108 109 110 116 121 118 119 122 122 122
291 259 231 227 222 217 216 214 206 201 197 195 208 225 309 353 0 360 360 357 356 357 357 354 354 353 357 2 6 8 13 44 83 134 124 125 121 129 137 134 131 127 128
292 264 239 228 223 218 215 212 209 205 204 209 217 232 261 312 345 353 353 350 349 350 349 347 348 346 348 350 354 360 9 27 88 155 150 144 130 137 146 144 141 136 136
294 259 238 233 225 216 213 214 213 209 210 216 223 229 248 284 326 342 345 342 342 344 342 341 342 340 342 339 344 357 1 0 176 151 150 148 146 152 156 155 149 149 150
292 259 239 233 227 216 214 215 218 215 213 214 221 230 242 260 297 326 333 332 335 338 337 335 333 332 332 330 330 345 352 90 131 140 155 153 158 167 168 160 161 160 158
297 266 241 231 224 219 214 217 220 217 212 214 221 231 246 256 277 305 318 322 326 331 330 329 324 322 322 316 311 308 286 201 185 175 169 169 175 182 180 176 174 175 172
300 275 247 234 225 221 218 219 221 217 213 215 221 228 240 247 267 281 294 302 312 320 323 324 318 313 310 300 290 275 247 225 205 201 200 199 196 193 192 190 185 185 185
294 270 250 236 228 220 217 218 217 216 213 213 219 225 233 245 255 262 274 285 297 312 318 318 314 309 306 286 280 266 236 215 206 212 210 203 204 202 198 195 195 194 197
287 265 255 235 227 223 218 218 217 214 213 213 217 221 231 241 244 251 264 272 287 303 311 314 313 307 295 276 276 259 242 225 225 221 214 212 213 214 206 202 206 207 206
287 269 252 235 225 222 217 212 212 214 213 213 214 219 228 234 238 248 257 260 272 288 300 304 302 301 292 274 264 250 240 236 232 223 220 218 220 221 217 213 211 211 210
293 267 240 228 221 218 216 211 211 210 210 212 213 218 223 228 234 241 248 255 260 269 274 280 293 287 282 256 246 251 249 241 232 221 220 219 220 219 218 220 219 218 217
293 260 242 226 217 219 217 213 210 211 210 210 214 217 219 223 229 233 243 244 245 251 249 260 275 269 260 229 232 258 254 246 240 236 230 226 227 226 223 223 225 226 226
288 267 242 221 217 214 216 211 210 210 210 209 214 215 218 222 229 230 231 228 229 239 242 248 249 243 235 215 217 241 237 239 237 233 232 231 229 231 231 230 231 234 235
292 270 242 216 213 215 214 207 207 207 209 209 212 216 219 224 225 223 222 220 220 225 227 222 202 194 204 199 165 151 150 189 204 220 229 225 225 230 232 233 232 234 235
297 273 238 218 213 213 209 207 205 206 207 208 211 214 216 217 217 222 220 216 216 216 212 198 173 166 166 146 124 123 121 114 106 147 196 212 221 229 232 231 230 230 234
312 282 233 213 210 208 204 200 202 205 205 208 210 210 210 213 216 220 217 215 211 207 206 199 183 173 164 145 131 123 123 120 112 104 122 169 219 226 230 232 232 230 235
302 275 217 206 203 197 199 199 201 202 205 206 207 208 211 211 212 215 214 212 211 207 206 205 191 181 171 156 141 131 132 132 128 110 79 58 259 236 237 241 246 248 250
305 266 215 200 200 198 199 199 198 199 203 204 206 208 208 210 211 212 212 212 211 211 212 206 197 191 187 182 172 158 168 175 195 218 288 305 279 276 270 256 261 262 261
291 243 203 195 197 197 198 198 197 197 202 206 208 207 208 211 214 212 209 210 213 213 212 209 202 204 206 206 205 214 229 250 253 262 279 284 280 277 283 281 271 267 267
281 236 209 198 188 192 195 198 194 198 207 208 209 208 207 211 213 210 209 211 214 213 213 211 211 215 221 227 231 239 249 257 265 276 281 283 285 281 280 284 283 276 271
254 235 200 190 191 193 196 200 200 203 206 208 209 210 211 211 210 210 212 215 217 218 218 218 222 226 231 237 242 247 255 261 268 278 280 279 280 282 281 280 279 276 272
262 201 182 189 194 196 194 196 202 205 207 209 211 211 212 213 212 213 215 218 220 222 225 228 229 232 237 242 248 253 259 264 267 273 278 279 277 279 280 280 279 277 276
Height
5867 5868 5869 5870 5870 5871 5872 5873 5874 5876 5877 5878 5879 5879 5880 5881 5881 5882 5882 5882 5882 5882 5882 5882 5882 5882 5882 5882 5882 5882 5882 5883 5883 5883 5883 5884 5884 5884 5884 5885 5885 5886 5886
5867 5867 5868 5869 5870 5871 5872 5873 5874 5875 5877 5878 5879 5880 5881 5881 5882 5882 5882 5883 5883 5882 5882 5882 5882 5882 5882 5882 5882 5882 5882 5883 5883 5883 5884 5884 5885 5885 5885 5886 5886 5887 5887
5867 5867 5867 5868 5869 5870 5871 5872 5873 5875 5876 5877 5879 5880 5881 5881 5882 5882 5882 5883 5883 5882 5882 5882 5882 5882 5882 5882 5882 5882 5883 5883 5883 5884 5884 5885 5885 5886 5886 5886 5887 5887 5888
5866 5866 5867 5868 5868 5869 5870 5872 5873 5874 5875 5877 5878 5879 5880 5881 5881 5882 5882 5882 5882 5882 5882 5882 5882 5882 5882 5882 5882 5882 5883 5883 5884 5884 5885 5885 5886 5886 5886 5887 5887 5888 5889
5866 5866 5866 5867 5867 5868 5870 5871 5872 5873 5874 5876 5877 5879 5879 5880 5881 5881 5882 5882 5882 5882 5882 5882 5882 5882 5882 5882 5882 5883 5883 5883 5884 5884 5885 5885 5886 5886 5887 5887 5888 5889 5889
5865 5865 5865 5865 5866 5867 5868 5870 5871 5872 5874 5875 5877 5878 5879 5879 5880 5881 5881 5882 5882 5882 5882 5882 5882 5882 5882 5882 5883 5883 5883 5883 5884 5884 5885 5885 5886 5886 5887 5888 5888 5889 5890
5863 5863 5864 5864 5865 5866 5867 5869 5870 5871 5873 5874 5875 5877 5878 5879 5879 5880 5881 5881 5882 5882 5882 5882 5882 5882 5882 5882 5882 5882 5883 5883 5883 5884 5884 5885 5886 5886 5887 5888 5889 5889 5890
5862 5862 5862 5862 5863 5864 5866 5867 5869 5870 5872 5873 5875 5876 5877 5878 5879 5880 5880 5881 5881 5882 5882 5882 5882 5882 5882 5882 5882 5882 5882 5883 5883 5884 5884 5885 5885 5886 5887 5888 5889 5890 5891
5860 5860 5860 5860 5861 5862 5864 5866 5868 5869 5871 5872 5874 5875 5876 5877 5879 5879 5880 5880 5881 5881 5882 5881 5881 5881 5881 5882 5882 5882 5882 5882 5883 5883 5884 5885 5885 5886 5887 5888 5889 5890 5891
5858 5858 5859 5859 5860 5861 5862 5864 5866 5868 5870 5871 5873 5874 5876 5877 5878 5879 5880 5880 5881 5881 5881 5881 5881 5881 5881 5881 5881 5881 5882 5882 5883 5883 5884 5884 5885 5886 5887 5887 5888 5889 5890
5857 5856 5857 5857 5858 5859 5861 5863 5865 5866 5868 5870 5872 5874 5875 5876 5877 5878 5879 5880 5880 5881 5881 5880 5880 5881 5881 5881 5881 5881 5881 5882 5882 5883 5883 5884 5885 5886 5886 5887 5888 5889 5890
5854 5854 5854 5855 5856 5858 5860 5861 5863 5865 5867 5869 5871 5872 5874 5875 5877 5878 5879 5879 5880 5880 5880 5880 5880 5880 5881 5881 5881 5881 5881 5882 5882 5883 5883 5884 5884 5885 5886 5887 5888 5889 5890
5851 5851 5851 5852 5853 5855 5858 5859 5861 5863 5865 5867 5870 5871 5873 5874 5876 5877 5878 5879 5879 5880 5880 5880 5880 5880 5880 5880 5881 5881 5881 5881 5882 5882 5883 5884 5884 5885 5885 5886 5887 5888 5889
5848 5848 5849 5849 5851 5853 5855 5857 5859 5861 5863 5866 5868 5870 5872 5874 5875 5876 5877 5878 5879 5879 5880 5880 5880 5880 5880 5880 5880 5881 5881 5881 5881 5882 5882 5883 5884 5884 5885 5886 5887 5888 5889
5845 5845 5846 5846 5848 5850 5852 5854 5857 5859 5862 5864 5867 5869 5871 5873 5874 5875 5876 5877 5878 5879 5879 5879 5880 5880 5880 5880 5880 5880 5881 5881 5881 5882 5882 5883 5883 5884 5885 5885 5886 5887 5888
5843 5843 5843 5843 5845 5847 5849 5852 5854 5857 5860 5862 5865 5867 5869 5871 5873 5874 5875 5876 5877 5878 5879 5879 5879 5880 5880 5880 5880 5880 5880 5881 5881 5881 5882 5882 5883 5883 5884 5885 5885 5886 5887
5841 5840 5840 5841 5843 5844 5847 5849 5852 5855 5858 5860 5863 5866 5868 5870 5871 5873 5874 5876 5877 5877 5878 5879 5879 5879 5880 5880 5880 5880 5880 5881 5881 5881 5881 5882 5882 5883 5883 5884 5885 5885 5886
5837 5837 5838 5839 5841 5843 5845 5847 5850 5853 5856 5858 5861 5864 5866 5868 5870 5872 5873 5875 5876 5877 5878 5879 5879 5879 5879 5880 5880 5880 5880 5880 5880 5881 5881 5881 5882 5882 5883 5883 5884 5884 5885
5836 5835 5836 5837 5839 5841 5843 5846 5848 5851 5854 5856 5859 5862 5865 5867 5869 5871 5872 5874 5875 5876 5878 5878 5879 5879 5879 5880 5880 5880 5881 5881 5881 5881 5881 5881 5881 5882 5882 5882 5883 5883 5884
5834 5834 5835 5836 5838 5839 5841 5844 5847 5849 5852 5854 5857 5860 5863 5865 5867 5869 5871 5873 5874 5876 5877 5878 5878 5879 5879 5880 5880 5881 5881 5881 5881 5881 5881 5881 5881 5881 5882 5882 5882 5883 5883
5833 5834 5834 5835 5836 5838 5840 5842 5845 5848 5850 5853 5856 5858 5861 5864 5866 5868 5870 5872 5873 5875 5876 5877 5878 5879 5879 5880 5880 5881 5881 5882 5882 5882 5882 5882 5881 5881 5881 5882 5882 5882 5882
5833 5833 5833 5834 5836 5838 5839 5841 5843 5846 5849 5851 5854 5857 5859 5862 5865 5867 5869 5871 5873 5874 5875 5877 5878 5879 5879 5880 5881 5881 5882 5882 5882 5882 5882 5882 5882 5882 5881 5881 5881 5881 5882
5833 5832 5833 5834 5835 5837 5838 5840 5843 5846 5848 5850 5853 5855 5858 5860 5863 5865 5868 5870 5872 5873 5875 5876 5877 5878 5879 5880 5881 5881 5881 5882 5882 5882 5882 5882 5882 5882 5881 5881 5881 5881 5881
5833 5833 5833 5834 5835 5836 5838 5840 5842 5845 5847 5849 5851 5854 5856 5859 5861 5864 5866 5869 5871 5872 5874 5875 5876 5877 5878 5879 5880 5880 5881 5881 5881 5881 5882 5881 5881 5881 5881 5881 5880 5880 5880
5833 5833 5833 5834 5835 5836 5837 5839 5842 5844 5846 5848 5851 5853 5855 5857 5859 5862 5865 5867 5869 5871 5872 5874 5875 5876 5877 5878 5878 5879 5880 5880 5880 5881 5881 5881 5880 5880 5880 5879 5879 5879 5879
5833 5833 5834 5834 5835 5836 5837 5839 5840 5842 5844 5847 5849 5851 5854 5856 5858 5861 5863 5865 5868 5869 5871 5872 5874 5875 5876 5876 5877 5878 5878 5879 5879 5879 5879 5879 5879 5879 5878 5878 5877 5877 5877